User: anonymous   Login
Location: 相模原市立博物館
(35.5593°N, 139.3931°E)
Time: 14:35:46
(UTC+09:00)
Language:

DUCHIFAT 1 - Orbit

View from above orbital plane
View from above orbital plane
View from above satellite
View from above satellite

Ground track
Ground track

The orbit data is extracted from the following two-line orbital elements,

1 40021U 14033M   22026.39344706  .00001657  00000-0  16973-3 0  9994
2 40021  97.9972 334.2858 0013346 143.7473 216.4652 14.91847086413519
Epoch (UTC): 26 January 2022 09:26:33
Eccentricity: 0.0013346
inclination: 97.9972°
perigee height: 583 km
apogee height: 601 km
right ascension of ascending node: 334.2858°
argument of perigee: 143.7473°
revolutions per day: 14.91847086
mean anomaly at epoch: 216.4652°
orbit number at epoch: 41351

The dashed part of the orbit path shows where the satellite is in the earth's shadow,  

DLR